sat.trackr.live / text

‹ back to catalog

CSC-1

NORAD 58022 · 2023-155G

PAYLOAD ACTIVE UNKNOWN

§ Identity

Operator
Country
NETH
Launch date
2023-10-09
Launch site
FRGUI
Launch vehicle
Mass (kg)
RCS (m²)

External: N2YO · Heavens-Above · Gunter

§ Orbital elements

Epoch: 2026-09-21T00:05:27.195072Z

Period
95.28 min
Inclination
97.5281°
Eccentricity
0.0006450
Mean motion
15.11265559 rev/d
Perigee alt
527.9 km
Apogee alt
536.8 km
Semi-major
6,910.5 km
B*
1.6107e-4
RAAN
332.0255°
Arg perigee
271.8530°
Mean anomaly
88.1961°
Rev number
16,220

§ Raw data

CSC-11 58022U 23155G   26264.00378698  .00002646  00000+0  16107-3 0  99992 58022  97.5281 332.0255 0006450 271.8530  88.1961 15.11265559162206

JSON: /api/v1/satellites/58022 · /tle

For live sub-satellite position, see the globe view (requires WebGL).

§ Visibility from observer

Set your observer location to see the next 7 days of passes ≥ 10°. The values pass through the URL so the page stays shareable.

No JS? Fill the form by hand. The geolocation button needs JavaScript.

§ Radio — SatNOGS DB

ModeDescriptionDownlinkUplink
FM Mode S 2.245 GHz
BPSK Mode U - TLM 401.175 MHz
BPSK S-Band transmitter 2.213 GHz

3 transmitters · refreshed weekly from db.satnogs.org